sat.trackr.live / text

‹ back to catalog

TIANMU-1 03

NORAD 55973 · 2023-039A

PAYLOAD ACTIVE UNKNOWN

§ Identity

Operator
Country
PRC
Launch date
2023-03-22
Launch site
JSC
Launch vehicle
Mass (kg)
RCS (m²)

Purposes: earth_obs

External: N2YO · Heavens-Above · Gunter

§ Orbital elements

Epoch: 2026-09-20T04:05:07.832256Z

Period
92.92 min
Inclination
97.5275°
Eccentricity
0.0003634
Mean motion
15.49746516 rev/d
Perigee alt
415.0 km
Apogee alt
419.9 km
Semi-major
6,795.6 km
B*
2.2408e-4
RAAN
81.0714°
Arg perigee
104.6291°
Mean anomaly
255.5363°
Rev number
19,553

§ Raw data

TIANMU-1 031 55973U 23039A   26263.17022954  .00012354  00000+0  22408-3 0  99982 55973  97.5275  81.0714 0003634 104.6291 255.5363 15.49746516195536

JSON: /api/v1/satellites/55973 · /tle

For live sub-satellite position, see the globe view (requires WebGL).

§ Visibility from observer

Set your observer location to see the next 7 days of passes ≥ 10°. The values pass through the URL so the page stays shareable.

No JS? Fill the form by hand. The geolocation button needs JavaScript.